EW1994 Weather Reports


time (UTC)temp
C
wind
direction
speed
KPH
gust
KPH
rain 1hr
cm
rain 24hr
cm
rain mn
cm
humidity
%
barometer
mb
20260509134518 6 138 0.0 0.0 0.00 0.00 0.00 91 1023.0
20260509133026 6 138 0.0 0.0 0.00 0.00 0.00 91 1023.0
20260509131535 6 138 0.0 0.0 0.00 0.00 0.00 91 1022.9
20260509130022 6 138 0.0 0.0 0.00 0.00 0.00 91 1022.8
20260509124522 6 138 0.0 0.0 0.00 0.00 0.00 91 1022.8
20260509123025 6 138 0.0 0.0 0.00 0.00 0.00 91 1022.8
20260509121536 7 138 0.0 0.0 0.00 0.00 0.00 90 1022.9
20260509120034 7 138 0.0 0.0 0.00 0.00 0.00 90 1022.9
20260509114513 7 138 0.0 0.0 0.00 0.00 0.00 90 1023.0
20260509113018 7 138 0.0 0.0 0.00 0.00 0.00 90 1023.1
20260509111522 7 138 0.0 0.0 0.00 0.00 0.00 90 1023.2
20260509110004 7 138 0.0 0.0 0.00 0.00 0.00 90 1023.2
20260509104508 7 138 0.0 0.0 0.00 0.00 0.00 90 1023.4
20260509103016 8 138 0.0 0.0 0.00 0.00 0.00 90 1023.5
20260509101523 7 138 0.0 0.0 0.00 0.00 0.00 90 1023.5
20260509100029 7 138 0.0 0.0 0.00 0.00 0.00 90 1023.6
20260509094508 7 138 0.0 0.0 0.00 0.00 0.00 89 1023.6
20260509093014 7 138 0.0 0.0 0.00 0.00 0.00 89 1023.6
20260509091520 7 138 0.0 0.0 0.00 0.00 0.00 89 1023.7
20260509090021 7 138 0.0 0.0 0.00 0.00 0.00 89 1023.7
20260509084534 8 138 0.0 0.0 0.00 0.00 0.00 88 1023.7
20260509083010 8 138 0.0 0.0 0.00 0.00 0.00 88 1023.8
20260509081516 8 138 0.0 0.0 0.00 0.00 0.00 87 1023.7
20260509080025 8 138 0.0 0.0 0.00 0.00 0.00 86 1023.7
20260509074523 8 138 0.0 0.0 0.00 0.00 0.00 86 1023.6
20260509073026 9 138 0.0 0.0 0.00 0.00 0.00 85 1023.5
20260509071512 9 138 0.0 0.0 0.00 0.00 0.00 84 1023.4
20260509070018 10 138 0.0 0.0 0.00 0.00 0.00 84 1023.2
20260509064522 10 138 0.0 0.0 0.00 0.00 0.00 84 1023.1
20260509063024 10 138 0.0 0.0 0.00 0.00 0.00 84 1023.2
20260509061531 10 138 0.0 0.0 0.00 0.00 0.00 84 1023.1
20260509060013 10 138 0.0 0.0 0.00 0.00 0.00 84 1023.0
20260509054517 10 138 0.0 0.0 0.00 0.00 0.00 84 1023.0
20260509053022 10 138 0.0 0.0 0.00 0.00 0.00 84 1023.0
20260509051527 10 138 0.0 0.0 0.00 0.00 0.00 83 1022.9
20260509050030 10 138 0.0 0.0 0.00 0.00 0.00 83 1022.9
20260509044513 10 138 0.0 0.0 0.00 0.00 0.00 82 1022.9
20260509043020 10 138 0.0 0.0 0.00 0.00 0.00 81 1022.8
20260509041534 11 138 0.0 0.0 0.00 0.00 0.00 79 1022.7
20260509040027 11 138 0.0 0.0 0.00 0.00 0.00 78 1022.5
20260509034530 12 138 0.0 0.0 0.00 0.00 0.00 76 1022.3
20260509033015 12 138 0.0 0.0 0.00 0.00 0.00 72 1022.3
20260509031522 13 138 0.0 0.0 0.00 0.00 0.00 71 1022.2
20260509030024 13 138 0.0 0.0 0.00 0.00 0.00 69 1022.1
20260509024526 14 138 0.0 1.6 0.00 0.00 0.00 63 1022.1
20260509023030 15 138 0.0 4.8 0.00 0.00 0.00 60 1021.9
20260509021522 15 146 0.0 6.4 0.00 0.00 0.00 59 1021.9
20260509020025 15 272 0.0 8.0 0.00 0.00 0.00 59 1021.9
20260509014524 15 157 0.0 0.0 0.00 0.00 0.00 57 1021.9
20260509013029 15 157 0.0 1.6 0.00 0.00 0.00 58 1021.9
20260509011531 15 169 0.0 6.4 0.00 0.00 0.00 58 1022.1
20260509010036 15 139 0.0 6.4 0.00 0.00 0.00 56 1022.0
20260509004527 15 259 0.0 6.4 0.00 0.00 0.00 56 1022.0
20260509003028 15 266 0.0 8.0 0.00 0.00 0.00 57 1021.9
20260509001528 15 153 1.6 12.9 0.00 0.00 0.00 53 1022.1
20260509000020 15 204 0.0 6.4 0.00 0.00 0.00 56 1021.9
20260508234525 15 213 0.0 14.5 0.00 0.00 0.00 56 1022.1
20260508233026 16 235 1.6 9.7 0.00 0.00 0.00 56 1022.1
20260508231528 15 151 4.8 12.9 0.00 0.00 0.00 57 1022.1
20260508230038 15 100 0.0 12.9 0.00 0.00 0.00 58 1022.0
20260508224528 15 136 4.8 12.9 0.00 0.00 0.00 59 1022.1
20260508223025 14 281 1.6 4.8 0.00 0.00 0.00 60 1022.1
20260508221539 15 155 1.6 14.5 0.00 0.00 0.00 58 1022.2
20260508220029 15 209 4.8 12.9 0.00 0.00 0.00 56 1022.1
20260508214528 15 169 1.6 14.5 0.00 0.00 0.00 60 1022.1
20260508213025 14 15 1.6 8.0 0.00 0.00 0.00 62 1021.9
20260508211526 13 247 3.2 19.3 0.00 0.00 0.00 62 1022.1
20260508210026 13 248 8.0 19.3 0.00 0.00 0.00 60 1022.1
20260508204528 13 141 4.8 14.5 0.00 0.00 0.00 65 1022.1
20260508203027 13 239 0.0 12.9 0.00 0.00 0.00 67 1022.0
20260508201522 13 149 1.6 16.1 0.00 0.00 0.00 71 1021.9
20260508200006 12 277 0.0 9.7 0.00 0.00 0.00 70 1021.8
20260508194512 12 316 0.0 12.9 0.00 0.00 0.00 71 1021.7
20260508193017 12 270 0.0 9.7 0.00 0.00 0.00 73 1021.8
20260508191523 11 211 1.6 12.9 0.00 0.00 0.00 74 1021.7
20260508190028 11 150 1.6 9.7 0.00 0.00 0.00 74 1021.7
20260508184508 11 189 0.0 6.4 0.00 0.00 0.00 76 1021.6
20260508183016 12 235 1.6 8.0 0.00 0.00 0.00 76 1021.4
20260508181520 11 173 3.2 11.3 0.00 0.00 0.00 76 1021.4
20260508180026 11 250 3.2 11.3 0.00 0.00 0.00 77 1021.2
20260508174535 11 79 3.2 14.5 0.00 0.00 0.00 76 1020.9
20260508173010 11 116 1.6 11.3 0.00 0.00 0.00 76 1020.5
20260508171518 11 325 0.0 3.2 0.00 0.00 0.00 80 1020.3
20260508170020 11 279 0.0 6.4 0.00 0.00 0.00 79 1020.3
20260508164529 11 145 0.0 6.4 0.00 0.00 0.00 80 1020.2
20260508163027 10 287 0.0 4.8 0.00 0.00 0.00 81 1020.0
20260508161519 10 146 3.2 11.3 0.00 0.00 0.00 80 1020.1
20260508160024 10 167 1.6 14.5 0.00 0.00 0.00 81 1020.3
20260508154528 10 193 0.0 16.1 0.00 0.00 0.00 83 1020.2
20260508153024 10 307 1.6 14.5 0.00 0.00 0.00 84 1020.2
20260508151530 10 28 0.0 16.1 0.00 0.00 0.00 86 1020.1
20260508150016 10 150 0.0 8.0 0.00 0.00 0.00 88 1019.9
20260508144521 9 246 0.0 8.0 0.00 0.00 0.00 89 1019.7
20260508143022 9 169 0.0 12.9 0.00 0.00 0.00 92 1019.2
20260508141528 8 148 0.0 3.2 0.00 0.00 0.00 93 1019.1
20260508140014 7 57 0.0 0.0 0.00 0.00 0.00 93 1018.6